CAPE
5 6 5 5 5 4 4 3 4 5 4 6 7 5 5 4 5 5 4 4 5 4 4 4 4 4 5 4 3 0 4 0 0 0 0 0 0 0 0 0 0 0 0 0 0 0 0 0 0 0 0 0 0 0 63 73 65 216 429 274 362 220 301 292 356 987 80 167 452 672 949 738 577 984 733 431 392 283 313 310 238 291 248 382 438 513 416 512
4 5 4 6 5 5 4 6 5 4 4 5 4 4 4 4 5 5 3 3 6 4 4 4 4 4 4 4 1 5 0 0 0 0 0 0 0 0 0 0 0 0 0 0 0 0 0 0 0 0 48 0 0 90 150 188 9 179 249 299 294 276 498 462 661 713 409 679 748 948 1010 758 807 745 588 463 240 152 297 382 343 308 368 425 446 467 442 458
3 4 3 4 4 7 4 4 5 6 4 5 5 4 4 4 4 4 4 4 4 5 3 4 4 4 4 3 4 10 0 0 0 0 0 0 0 0 0 0 0 0 0 0 0 0 0 0 0 0 181 112 87 114 82 45 0 45 238 306 334 341 763 366 603 657 713 857 736 934 855 871 964 924 928 432 230 106 200 175 236 166 167 183 393 373 382 417
3 4 3 4 4 5 4 4 8 5 4 5 5 4 3 3 5 2 4 4 4 3 3 4 4 3 3 2 2 4 0 0 0 0 0 0 0 0 0 0 0 0 0 0 0 0 0 0 0 0 134 44 88 3 0 163 7 156 112 278 267 694 1037 798 897 893 916 1154 1000 1009 1008 1012 1174 1093 992 446 226 277 455 253 257 231 158 236 361 350 428 392
3 4 3 3 3 4 4 4 4 4 4 4 5 4 4 4 3 4 4 3 3 3 3 4 3 3 3 4 5 0 0 0 0 0 0 174 0 0 0 0 0 0 0 0 0 0 0 0 0 21 79 146 110 10 0 89 45 364 192 252 213 684 959 1181 910 976 986 1092 1176 934 1020 1024 1067 926 652 371 318 204 318 554 359 264 193 323 346 343 402 377
2 2 3 4 3 4 5 5 4 5 4 6 4 4 2 3 3 2 3 4 4 4 4 4 3 3 3 5 1 1 0 0 0 0 0 798 6 0 0 0 0 0 0 0 0 0 0 0 0 0 0 105 93 34 2 16 197 122 262 310 399 424 880 1297 1032 1020 986 1175 992 1022 1332 1062 1048 868 645 671 541 619 449 458 502 387 380 353 377 429 438 372
3 3 2 4 4 3 4 4 5 5 5 4 3 3 4 4 3 3 3 4 5 4 3 4 4 3 1 0 0 0 0 0 0 0 543 907 18 0 0 0 0 0 0 0 0 0 0 0 0 0 97 97 93 1 0 0 152 40 52 176 514 954 1149 1307 1064 973 995 1130 1334 1480 1163 1148 824 715 847 1109 1064 597 457 537 518 442 310 360 451 456 416 388
3 4 2 3 4 4 4 4 4 4 4 3 3 3 3 3 3 3 3 4 4 4 4 3 4 2 0 0 0 0 0 0 0 0 48 7 0 0 10 0 0 0 0 0 0 0 0 0 0 0 0 108 100 0 0 9 16 147 172 114 846 1183 1413 1301 1101 1094 1269 1671 1451 1222 1144 1227 1043 904 905 1138 812 658 524 466 476 399 464 491 500 518 500 456
4 3 3 4 4 4 5 3 4 4 4 4 3 2 3 5 4 4 5 4 4 4 4 4 3 0 4 0 0 0 0 0 0 0 0 0 0 0 0 0 0 0 0 0 0 0 0 0 0 0 0 116 68 0 0 0 10 151 117 703 1396 1321 1218 1180 1220 1164 1371 1560 1387 1265 1025 1195 1246 1011 1021 1119 777 619 497 534 460 400 446 494 521 509 572 543
4 3 4 4 3 3 3 5 4 4 5 4 3 3 3 3 3 3 3 4 4 4 3 2 0 2 0 0 0 0 0 0 0 0 0 0 0 0 0 0 0 0 0 0 0 0 0 0 0 0 0 111 28 0 0 0 0 25 214 588 1120 1184 1057 1116 1166 1256 1300 1297 1258 1085 916 1138 986 1462 755 1219 766 652 611 550 577 445 467 468 520 539 621 520
4 4 3 3 3 3 3 3 4 4 4 4 4 4 2 3 3 3 4 3 3 4 3 2 0 0 0 0 0 0 0 0 0 0 0 0 0 0 0 0 0 0 0 0 0 0 0 0 0 0 17 106 0 0 0 0 0 0 424 1214 1150 1092 1038 1033 922 1096 1265 1005 1198 1078 859 917 962 1030 1040 1033 767 688 669 579 534 470 496 520 527 614 738 675
3 3 3 2 2 3 3 4 3 3 3 3 3 2 4 3 4 4 3 3 1 2 3 5 0 0 0 0 0 0 0 0 0 0 0 0 0 0 0 0 0 0 0 0 0 0 0 0 0 0 3 0 39 0 0 0 0 158 792 972 913 939 928 1008 1106 847 633 956 978 779 703 906 680 855 1315 1102 804 778 645 564 492 533 514 533 611 662 679 775
4 4 3 2 3 4 4 4 3 3 3 3 3 4 3 3 2 2 2 0 0 2 3 3 1 0 0 0 0 0 0 0 0 0 0 0 0 0 0 0 0 0 0 0 0 0 0 0 0 0 0 0 0 0 0 0 0 351 622 952 913 1052 890 800 920 797 755 1038 905 835 505 959 712 1144 1195 1045 854 768 695 600 502 523 481 511 624 634 637 694
2 2 2 2 2 2 3 3 4 3 4 4 4 3 3 3 2 2 1 0 0 2 3 5 0 0 0 0 0 0 0 0 0 0 0 0 0 0 0 0 0 0 0 0 0 0 0 0 0 0 0 0 0 0 0 89 432 756 1019 798 970 781 1019 622 593 812 767 662 597 603 852 714 895 1174 1239 1039 881 766 647 578 514 538 486 481 522 605 645 648
3 1 2 2 2 3 3 3 2 3 3 3 3 2 2 1 1 0 0 0 0 1 0 0 0 0 0 0 0 0 0 0 0 0 0 0 0 0 0 0 0 0 0 0 0 0 0 0 0 0 0 0 0 0 0 207 702 1044 747 603 924 702 700 755 848 766 834 561 625 560 353 739 874 1133 1342 1011 761 822 695 583 496 548 513 517 509 676 698 669
4 4 2 2 2 3 3 4 7 4 2 2 1 1 2 0 0 0 1 0 1 1 0 0 0 0 0 0 0 0 0 0 0 0 0 0 0 0 0 0 0 0 0 0 0 0 0 0 0 0 0 0 0 0 0 151 611 496 526 516 861 792 718 649 572 790 708 535 538 582 1011 682 784 1059 1263 1235 720 761 768 469 595 636 610 580 677 698 711 729
3 2 2 2 2 2 2 5 5 2 4 1 1 0 0 0 0 0 0 2 0 0 0 0 0 0 0 0 0 0 0 0 0 0 0 0 0 0 0 0 0 0 0 0 0 0 0 0 0 0 0 0 0 0 0 1 144 596 152 631 810 757 730 443 397 759 720 533 438 405 629 722 747 1159 1112 1215 626 664 543 586 612 691 705 632 642 653 770 837
2 1 2 2 1 2 3 5 5 3 3 0 0 0 0 0 0 2 3 1 0 0 0 0 0 0 0 0 0 0 0 0 0 0 0 0 0 0 0 0 0 0 0 0 0 0 0 0 0 0 0 0 0 0 0 0 0 121 212 386 658 670 569 799 777 790 689 608 775 694 665 673 876 949 1092 1110 631 439 396 569 381 399 703 693 690 715 768 821
1 1 1 2 1 2 2 2 4 6 1 0 0 0 0 0 0 0 0 0 0 0 0 0 0 0 0 0 0 0 0 0 0 0 0 0 0 0 0 0 0 0 0 0 0 0 0 0 0 0 0 0 0 0 0 0 0 0 162 207 456 375 624 706 819 766 939 936 898 747 771 952 965 862 1104 1168 776 576 341 408 400 428 365 696 734 743 738 829
1 1 1 1 1 1 1 2 3 4 0 0 0 0 0 0 0 0 0 0 0 0 0 0 0 0 0 0 0 0 0 0 0 0 0 0 0 0 0 0 0 0 0 0 0 0 0 0 0 0 0 0 0 0 0 0 0 0 76 128 151 14 557 387 647 881 1074 1152 1079 971 998 854 862 772 1062 1067 712 420 505 386 360 410 392 396 663 635 714 758
1 1 0 0 0 1 0 1 2 1 0 0 0 0 0 0 0 0 0 0 0 0 0 0 0 0 0 0 0 0 0 0 0 0 0 0 0 0 0 0 0 0 0 0 0 0 0 0 0 0 0 0 0 0 0 0 0 0 0 3 92 132 25 203 555 1209 1448 1190 1228 1224 1096 899 1034 999 1046 1030 673 494 381 372 175 424 423 314 522 580 606 671
1 0 0 0 0 0 0 0 1 0 1 0 0 0 0 0 0 0 0 0 0 0 0 0 0 0 0 0 0 0 0 0 0 0 0 0 0 0 0 0 0 0 0 0 0 0 0 0 0 0 0 0 0 0 0 0 0 0 0 0 0 5 37 955 1142 1376 1421 948 1009 1304 1215 1050 962 1046 964 1021 831 597 503 463 396 250 481 420 432 461 510 480
0 0 0 1 0 0 0 1 1 0 0 0 0 0 0 0 0 0 0 0 0 0 0 0 0 0 0 0 0 0 0 0 0 0 0 0 0 0 0 0 0 0 0 0 0 0 0 0 0 0 0 0 0 0 0 0 0 0 0 0 0 0 16 119 1167 1276 969 818 1083 1082 1071 1030 961 963 758 1029 1077 960 758 683 735 855 388 468 450 431 471 396
0 0 1 0 0 0 0 0 1 0 0 0 0 0 0 0 0 0 0 0 0 0 0 0 0 0 0 0 0 0 0 0 0 0 0 0 0 0 0 0 0 0 0 0 0 0 0 0 0 0 0 0 0 0 0 0 0 0 0 0 0 0 3 14 877 1038 832 600 881 954 876 770 835 767 657 651 782 999 937 675 691 1036 991 556 454 404 406 402
0 0 0 0 0 0 0 1 0 0 0 0 0 0 0 0 0 0 0 0 0 0 0 0 0 0 0 0 0 0 0 0 0 0 0 0 0 0 0 0 0 0 0 0 0 0 0 0 0 0 0 0 0 0 0 0 0 0 0 0 0 0 146 1301 1150 927 766 683 745 846 433 549 710 759 813 666 659 701 755 708 562 808 879 838 477 386 370 411
0 0 0 0 0 0 0 0 0 0 0 0 0 0 0 0 0 0 0 0 0 0 0 0 0 0 0 0 0 0 0 0 0 0 0 0 0 0 0 0 0 0 0 0 0 0 0 0 0 0 0 0 0 0 0 0 0 0 0 0 0 0 74 1253 1084 912 722 540 706 825 494 413 470 606 790 695 541 630 683 586 613 590 664 1008 682 402 311 302
0 0 0 0 0 0 0 0 0 0 0 0 0 0 0 0 0 0 0 0 0 0 0 0 0 0 0 0 0 0 0 0 0 0 0 0 0 0 0 0 0 0 0 0 0 0 0 0 0 0 0 0 0 0 0 0 0 0 0 0 0 0 30 959 978 357 641 560 794 738 534 468 461 470 691 604 672 694 623 677 558 602 642 736 806 641 419 284
0 0 0 0 0 0 0 0 0 0 0 0 0 0 0 0 0 0 0 0 0 0 0 0 0 0 0 0 0 0 0 0 0 0 0 0 0 0 0 0 0 0 0 0 0 0 0 0 0 0 0 0 0 0 0 0 0 0 0 0 0 0 5 608 480 361 694 454 894 677 338 357 278 446 622 803 611 623 705 705 666 652 676 734 970 978 627 369
0 0 0 1 0 0 1 0 0 0 0 0 0 0 0 0 0 0 0 0 0 0 0 0 0 0 0 0 0 0 0 0 0 0 0 0 0 0 0 0 0 0 0 0 0 0 0 0 0 0 0 0 0 0 0 0 0 0 0 0 0 0 82 235 212 288 637 310 245 697 566 440 392 348 773 531 615 632 656 760 674 626 698 599 754 895 750 664
0 0 1 1 0 0 0 0 0 0 0 0 0 0 0 0 0 0 0 0 0 0 0 0 0 0 0 0 0 0 0 0 0 0 0 0 0 0 0 0 0 0 0 0 0 0 0 0 0 0 0 0 0 0 0 0 0 0 0 0 2 221 702 709 459 355 502 146 91 623 656 354 95 590 892 745 644 785 865 574 754 771 724 686 738 799 753 779
0 0 0 2 0 0 0 0 0 0 0 0 0 0 0 0 0 0 0 0 0 0 0 0 0 0 0 0 0 0 0 0 0 0 0 0 0 0 0 0 0 0 0 0 0 0 0 0 0 0 0 0 0 0 0 0 0 0 0 0 0 265 604 595 493 296 110 38 305 390 689 536 112 238 598 1097 1009 849 1081 1021 845 796 864 838 736 776 630 804
0 0 0 1 0 0 0 0 0 0 0 0 0 0 0 0 0 0 0 0 0 0 0 0 0 0 0 0 0 0 0 0 0 0 0 0 0 0 0 0 0 0 0 0 0 0 0 0 0 0 0 0 0 0 0 0 0 0 0 0 0 38 60 18 231 114 40 10 168 204 623 563 279 224 156 427 929 1048 982 1112 1024 885 931 987 896 809 692 889
0 0 0 0 1 0 0 0 0 0 0 0 0 0 0 0 0 0 0 0 0 0 0 0 0 0 0 0 0 0 0 0 0 0 0 0 0 0 0 0 0 0 0 0 0 0 0 0 0 0 0 0 0 0 0 0 0 0 0 0 0 0 0 0 60 51 54 78 63 291 637 274 556 294 515 561 577 466 638 1017 1083 1054 995 1099 1015 861 811 936
0 0 0 0 0 0 0 0 0 0 0 0 0 0 0 0 0 149 0 0 0 0 0 0 0 0 0 0 0 0 0 0 0 0 0 1 0 0 0 0 0 0 0 0 0 0 0 0 0 0 0 0 0 0 0 0 0 0 0 0 0 0 0 1 30 1 0 51 115 590 274 347 223 720 442 744 698 706 554 529 945 1102 1126 1153 1058 910 830 1144
0 0 0 0 1 0 0 0 0 0 0 0 0 0 0 0 0 0 0 0 0 0 0 0 0 0 0 0 0 0 0 0 0 0 0 0 0 0 0 0 0 0 0 0 0 0 0 0 0 0 0 0 0 0 0 0 0 0 0 0 0 0 0 0 34 0 48 155 271 613 115 252 276 493 571 867 1011 848 336 344 619 1062 1160 1130 1108 936 912 1050
0 0 0 0 0 0 0 0 0 0 0 0 0 0 0 0 0 0 0 0 0 0 0 0 0 0 0 0 0 0 0 0 0 0 2 1 1 5 2 0 0 0 0 0 0 0 0 0 0 0 0 0 0 0 0 0 0 0 0 0 0 0 0 0 15 0 19 7 71 372 237 267 251 188 505 1144 1172 1021 806 503 588 914 1167 1194 1106 931 934 1090
0 0 0 0 0 0 0 0 0 0 0 0 0 0 0 0 0 0 28 0 0 0 0 0 0 0 0 0 0 0 0 1 10 23 27 9 7 0 0 0 0 0 0 0 0 0 0 0 0 0 0 0 0 0 0 0 0 0 0 0 0 0 0 0 0 9 5 0 20 152 74 468 90 142 778 1104 1137 1127 1232 1115 1042 1190 1247 1061 1098 876 980 1044
0 0 169 0 0 0 0 0 0 0 0 31 25 68 0 0 0 0 0 0 0 0 0 0 0 0 0 0 0 0 0 5 11 16 18 1 4 0 0 0 0 0 0 0 0 0 0 0 0 0 0 0 0 0 0 0 0 0 0 0 0 0 0 0 0 0 0 0 115 132 271 368 462 370 712 1008 942 993 1292 1268 1253 1249 1260 1106 1182 862 875 1045
0 0 0 0 0 0 0 0 0 0 0 0 0 81 0 0 0 0 0 0 0 0 0 0 2 0 0 0 0 0 0 1 0 1 1 1 0 0 0 0 0 0 0 0 0 0 0 0 0 0 0 0 0 0 0 0 0 0 0 0 0 0 0 0 0 0 0 0 36 183 281 278 474 577 734 843 1020 1161 1356 1344 1299 1272 1152 1318 1264 920 758 978
0 0 0 0 0 0 0 0 0 0 0 0 1 0 0 0 0 0 0 0 0 0 0 0 0 5 0 0 0 0 0 0 0 0 0 1 0 2 0 0 0 0 0 0 0 0 0 0 0 0 0 0 0 0 0 0 0 0 0 0 0 0 0 0 0 0 0 158 2 82 187 305 578 382 672 841 1068 1116 1179 1121 1204 1316 1467 1318 1308 1180 820 1098
0 0 0 0 0 0 0 0 0 0 0 0 0 0 0 0 0 0 0 0 0 0 0 0 0 2 0 0 0 0 0 0 0 0 0 0 0 0 0 1 0 0 0 0 0 0 0 0 0 0 0 0 0 0 0 0 0 0 0 0 0 0 0 0 0 0 62 24 135 0 0 658 461 346 637 957 953 1078 1235 1138 1117 1158 1255 1458 1338 1256 987 1118
0 0 0 0 0 0 0 0 0 0 0 0 0 0 0 152 0 0 0 0 0 0 0 0 0 0 0 0 0 0 0 0 0 0 0 0 0 0 0 0 0 0 0 0 0 0 0 6 0 2 0 0 0 0 0 0 0 0 0 0 0 0 0 0 0 0 134 335 216 275 80 684 334 483 577 766 892 1160 1241 1117 1216 1203 1293 1362 1517 1556 1533 1374
0 0 0 0 0 0 0 0 156 183 0 0 0 0 0 0 0 0 0 0 0 0 0 0 0 0 0 0 0 0 0 1 0 0 0 0 0 0 0 0 0 0 0 0 0 0 100 4 6 9 64 0 0 0 0 0 0 0 0 0 0 0 0 0 0 30 1 427 171 264 61 772 286 586 695 703 848 1207 1181 1205 1310 1165 1275 1322 1404 1566 1582 1532
0 0 0 0 0 0 0 0 0 0 0 0 0 0 0 0 0 0 0 0 0 0 0 0 0 0 0 0 0 0 0 11 0 0 0 0 0 0 0 0 0 12 20 0 0 0 2 12 10 20 15 5 0 0 0 0 0 0 0 0 0 0 0 0 54 53 126 436 336 35 7 703 414 642 788 709 965 1020 1163 1240 1268 1388 1364 1369 1288 1284 1355 1336
0 0 0 0 0 0 0 0 0 0 0 0 0 0 0 0 0 0 0 0 0 0 0 0 0 0 0 0 0 0 0 0 31 0 0 0 0 0 0 0 0 32 153 305 181 127 56 10 174 26 27 21 10 1 0 0 0 0 0 0 0 0 0 1 0 54 0 436 350 114 432 618 667 658 679 732 914 1015 1318 1329 1438 1405 1332 1420 1306 1310 1222 1197
0 0 0 0 0 0 0 0 0 0 0 0 0 0 0 0 0 0 0 0 0 0 0 0 0 0 0 0 6 5 18 0 7 39 9 0 0 0 0 0 0 26 887 282 84 139 153 97 144 197 80 30 14 1 1 0 0 0 0 3 2 12 5 0 23 73 0 331 354 473 827 710 477 616 645 723 966 1097 1290 1252 1299 1335 1358 1348 1400 1354 1270 1262
0 0 0 0 0 0 0 0 0 0 0 0 0 0 0 0 0 0 0 0 0 0 0 0 0 0 0 4 5 10 0 0 7 69 0 1 0 0 0 0 0 4 398 302 5 9 178 37 7 14 19 31 16 3 9 1 0 0 18 69 136 72 111 0 23 20 732 177 162 738 881 793 638 668 745 842 1076 1193 1225 1246 1256 1171 1028 1033 964 991 957 881
0 0 0 0 0 0 0 0 0 0 0 0 0 0 0 0 0 0 0 0 0 0 0 0 0 0 0 4 26 12 37 5 2 0 0 0 0 0 0 0 0 0 121 0 0 3 13 29 2 9 14 12 24 10 4 3 1 0 107 256 265 140 476 303 29 84 148 36 0 854 1057 1168 908 679 810 878 1106 1188 1110 1087 913 901 947 940 915 899 808 693
0 0 0 0 0 0 0 0 0 0 0 0 0 0 0 0 0 0 0 0 0 0 0 0 0 0 0 0 18 6 23 19 0 0 0 0 6 5 0 0 0 0 0 0 0 0 2 0 24 3 9 6 16 6 2 1 0 4 43 84 280 208 486 547 553 467 263 588 273 642 1280 1229 904 720 797 866 1012 1078 1131 1077 982 935 929 916 881 746 616 644
0 2 10 0 1 12 9 0 0 0 0 138 0 0 0 0 0 0 0 0 0 0 0 0 0 0 0 0 54 0 0 0 0 0 0 0 0 0 0 0 0 0 0 0 0 1 0 31 27 0 2 3 4 10 2 0 0 0 6 86 240 340 472 510 480 401 428 741 612 818 1042 964 1051 826 676 810 1007 1023 1140 1091 1078 1020 956 886 787 660 613 637
0 0 0 32 6 0 142 0 0 0 0 0 0 0 0 0 0 0 0 0 0 0 0 0 0 0 0 0 0 0 0 0 0 0 0 0 0 0 0 0 0 0 0 0 0 38 8 0 0 2 2 1 0 9 8 1 1 0 110 207 320 444 441 438 477 352 359 692 694 994 992 897 766 764 705 867 995 1027 1069 1025 1003 926 839 690 600 579 579 641
0 0 0 0 49 0 0 0 0 0 0 0 0 55 0 0 0 0 0 0 0 0 0 0 0 0 0 0 0 0 0 0 0 0 0 0 0 0 0 0 0 0 0 0 0 0 16 0 0 0 0 4 0 0 2 8 4 0 125 263 548 540 406 346 276 342 307 548 724 726 902 962 811 740 694 761 942 929 994 918 844 773 675 632 548 545 571 578
Wind_Speed
nan nan nan nan nan nan nan nan nan nan nan nan nan nan nan nan nan nan nan nan nan nan nan nan nan nan nan nan nan nan nan nan nan nan nan nan nan nan nan nan nan nan nan nan nan nan nan nan nan nan nan nan nan nan nan nan nan 9 8 7 6 4 3 4 10 13 nan 16 15 15 16 11 5 6 8 7 9 9 10 11 10 9 9 4 3 5 8 7
nan nan nan nan nan nan nan nan nan nan nan nan nan nan nan nan nan nan nan nan nan nan nan nan nan nan nan nan nan nan nan nan nan nan nan nan nan nan nan nan nan nan nan nan nan nan nan nan nan nan nan nan nan nan 14 14 nan 8 9 6 6 5 4 0 8 15 16 9 11 16 16 12 7 6 7 8 7 7 10 10 6 8 9 6 5 6 9 8
nan nan nan nan nan nan nan nan nan nan nan nan nan nan nan nan nan nan nan nan nan nan nan nan nan nan nan nan nan nan nan nan nan nan nan nan nan nan nan nan nan nan nan nan nan nan nan nan nan nan 20 20 nan 18 nan nan nan nan 7 6 7 6 4 3 5 14 3 5 12 13 13 10 8 9 11 8 6 7 6 7 7 4 6 6 6 8 10 9
nan nan nan nan nan nan nan nan nan nan nan nan nan nan nan nan nan nan nan nan nan nan nan nan nan nan nan nan nan nan nan nan nan nan nan nan nan nan nan nan nan nan nan nan nan nan nan nan nan nan 24 nan nan nan nan 17 nan 14 7 5 7 6 2 5 5 8 1 16 12 12 12 10 10 9 10 6 7 11 10 9 7 2 3 6 5 8 10 9
nan nan nan nan nan nan nan nan nan nan nan nan nan nan nan nan nan nan nan nan nan nan nan nan nan nan nan nan nan nan nan nan nan nan nan 27 nan nan nan nan nan nan nan nan nan nan nan nan nan nan nan 24 24 nan nan nan nan 14 8 6 4 4 4 5 5 5 3 14 12 10 8 9 9 7 6 5 10 13 11 9 9 2 1 3 5 8 9 9
nan nan nan nan nan nan nan nan nan nan nan nan nan nan nan nan nan nan nan nan nan nan nan nan nan nan nan nan nan nan nan nan nan nan nan 28 nan nan nan nan nan nan nan nan nan nan nan nan nan nan nan 24 nan nan nan nan 17 13 11 6 4 3 3 5 4 2 1 6 9 8 11 8 5 4 5 12 16 16 13 10 6 3 0 1 1 6 8 9
nan nan nan nan nan nan nan nan nan nan nan nan nan nan nan nan nan nan nan nan nan nan nan nan nan nan nan nan nan nan nan nan nan nan 30 29 nan nan nan nan nan nan nan nan nan nan nan nan nan nan nan nan nan nan nan nan 17 nan nan 11 11 6 5 4 5 1 3 5 7 10 8 7 3 1 8 12 13 9 10 7 5 3 3 2 2 7 9 10
nan nan nan nan nan nan nan nan nan nan nan nan nan nan nan nan nan nan nan nan nan nan nan nan nan nan nan nan nan nan nan nan nan nan nan nan nan nan nan nan nan nan nan nan nan nan nan nan nan nan nan 22 nan nan nan nan nan 15 13 11 9 11 10 8 7 6 7 11 9 7 8 11 6 5 6 12 9 6 7 6 4 3 3 1 2 7 8 9
nan nan nan nan nan nan nan nan nan nan nan nan nan nan nan nan nan nan nan nan nan nan nan nan nan nan nan nan nan nan nan nan nan nan nan nan nan nan nan nan nan nan nan nan nan nan nan nan nan nan nan 20 nan nan nan nan nan 16 13 14 10 14 12 10 9 9 10 10 9 12 10 11 9 7 10 9 7 4 5 5 3 2 1 1 2 6 8 9
nan nan nan nan nan nan nan nan nan nan nan nan nan nan nan nan nan nan nan nan nan nan nan nan nan nan nan nan nan nan nan nan nan nan nan nan nan nan nan nan nan nan nan nan nan nan nan nan nan nan nan 25 nan nan nan nan nan nan 15 13 17 17 13 9 9 12 13 12 11 11 10 12 11 11 8 8 5 3 4 4 3 1 1 1 3 5 8 8
nan nan nan nan nan nan nan nan nan nan nan nan nan nan nan nan nan nan nan nan nan nan nan nan nan nan nan nan nan nan nan nan nan nan nan nan nan nan nan nan nan nan nan nan nan nan nan nan nan nan nan 27 nan nan nan nan nan nan 18 23 24 19 17 14 14 15 13 14 16 14 15 16 17 15 10 5 3 2 4 4 2 2 2 2 2 3 7 9
nan nan nan nan nan nan nan nan nan nan nan nan nan nan nan nan nan nan nan nan nan nan nan nan nan nan nan nan nan nan nan nan nan nan nan nan nan nan nan nan nan nan nan nan nan nan nan nan nan nan nan nan nan nan nan nan nan 17 18 21 19 15 18 17 15 15 14 14 15 19 19 16 15 11 11 6 4 2 3 4 2 3 3 2 2 2 6 8
nan nan nan nan nan nan nan nan nan nan nan nan nan nan nan nan nan nan nan nan nan nan nan nan nan nan nan nan nan nan nan nan nan nan nan nan nan nan nan nan nan nan nan nan nan nan nan nan nan nan nan nan nan nan nan nan nan 18 20 21 17 18 18 22 18 14 10 15 16 20 12 13 12 16 11 6 4 3 3 3 2 5 5 3 3 4 4 6
nan nan nan nan nan nan nan nan nan nan nan nan nan nan nan nan nan nan nan nan nan nan nan nan nan nan nan nan nan nan nan nan nan nan nan nan nan nan nan nan nan nan nan nan nan nan nan nan nan nan nan nan nan nan nan nan 19 18 20 17 18 17 18 14 10 10 14 18 17 22 19 19 14 16 13 7 4 2 2 2 2 4 5 4 3 5 5 5
nan nan nan nan nan nan nan nan nan nan nan nan nan nan nan nan nan nan nan nan nan nan nan nan nan nan nan nan nan nan nan nan nan nan nan nan nan nan nan nan nan nan nan nan nan nan nan nan nan nan nan nan nan nan nan 24 23 21 16 17 19 19 18 13 12 9 14 13 15 22 19 21 16 16 15 10 5 5 4 3 3 5 6 5 4 4 5 5
nan nan nan nan nan nan nan nan nan nan nan nan nan nan nan nan nan nan nan nan nan nan nan nan nan nan nan nan nan nan nan nan nan nan nan nan nan nan nan nan nan nan nan nan nan nan nan nan nan nan nan nan nan nan nan 23 23 20 20 18 18 19 17 15 12 10 15 14 13 15 19 20 17 16 17 13 4 3 5 3 4 5 6 6 5 5 6 6
nan nan nan nan nan nan nan nan nan nan nan nan nan nan nan nan nan nan nan nan nan nan nan nan nan nan nan nan nan nan nan nan nan nan nan nan nan nan nan nan nan nan nan nan nan nan nan nan nan nan nan nan nan nan nan nan 22 16 18 20 20 16 16 17 17 10 10 10 11 8 16 19 20 12 15 17 8 4 5 3 3 5 7 8 7 6 6 7
nan nan nan nan nan nan nan nan nan nan nan nan nan nan nan nan nan nan nan nan nan nan nan nan nan nan nan nan nan nan nan nan nan nan nan nan nan nan nan nan nan nan nan nan nan nan nan nan nan nan nan nan nan nan nan nan nan 15 14 18 20 19 16 18 14 9 8 7 13 9 12 18 17 11 10 12 12 8 5 4 4 5 6 8 9 8 6 8
nan nan nan nan nan nan nan nan nan nan nan nan nan nan nan nan nan nan nan nan nan nan nan nan nan nan nan nan nan nan nan nan nan nan nan nan nan nan nan nan nan nan nan nan nan nan nan nan nan nan nan nan nan nan nan nan nan nan 18 23 22 18 16 16 14 15 8 10 10 8 8 14 15 11 9 10 12 12 8 7 7 6 6 9 10 9 8 8
nan nan nan nan nan nan nan nan nan nan nan nan nan nan nan nan nan nan nan nan nan nan nan nan nan nan nan nan nan nan nan nan nan nan nan nan nan nan nan nan nan nan nan nan nan nan nan nan nan nan nan nan nan nan nan nan nan nan nan 21 22 nan 21 20 14 12 8 12 9 9 8 8 11 8 6 6 10 13 14 7 8 6 6 7 9 8 8 7
nan nan nan nan nan nan nan nan nan nan nan nan nan nan nan nan nan nan nan nan nan nan nan nan nan nan nan nan nan nan nan nan nan nan nan nan nan nan nan nan nan nan nan nan nan nan nan nan nan nan nan nan nan nan nan nan nan nan nan nan nan 20 nan 21 17 12 11 10 12 10 9 7 8 6 5 5 5 5 12 14 8 7 7 7 8 7 7 7
nan nan nan nan nan nan nan nan nan nan nan nan nan nan nan nan nan nan nan nan nan nan nan nan nan nan nan nan nan nan nan nan nan nan nan nan nan nan nan nan nan nan nan nan nan nan nan nan nan nan nan nan nan nan nan nan nan nan nan nan nan nan nan 21 23 14 13 13 14 9 7 7 8 8 5 2 2 4 12 16 12 6 6 7 8 7 7 7
nan nan nan nan nan nan nan nan nan nan nan nan nan nan nan nan nan nan nan nan nan nan nan nan nan nan nan nan nan nan nan nan nan nan nan nan nan nan nan nan nan nan nan nan nan nan nan nan nan nan nan nan nan nan nan nan nan nan nan nan nan nan nan 22 26 17 16 19 18 11 11 14 12 12 8 5 1 4 10 14 15 14 9 7 6 7 8 7
nan nan nan nan nan nan nan nan nan nan nan nan nan nan nan nan nan nan nan nan nan nan nan nan nan nan nan nan nan nan nan nan nan nan nan nan nan nan nan nan nan nan nan nan nan nan nan nan nan nan nan nan nan nan nan nan nan nan nan nan nan nan nan nan 23 20 20 24 22 17 16 17 13 11 12 8 7 6 4 8 12 16 16 12 8 8 10 8
nan nan nan nan nan nan nan nan nan nan nan nan nan nan nan nan nan nan nan nan nan nan nan nan nan nan nan nan nan nan nan nan nan nan nan nan nan nan nan nan nan nan nan nan nan nan nan nan nan nan nan nan nan nan nan nan nan nan nan nan nan nan 29 28 23 22 22 21 18 17 19 17 13 8 9 11 9 6 5 3 5 13 16 15 7 6 8 8
nan nan nan nan nan nan nan nan nan nan nan nan nan nan nan nan nan nan nan nan nan nan nan nan nan nan nan nan nan nan nan nan nan nan nan nan nan nan nan nan nan nan nan nan nan nan nan nan nan nan nan nan nan nan nan nan nan nan nan nan nan nan nan 26 23 23 26 26 22 16 19 21 20 11 9 10 8 4 6 2 2 12 16 14 9 7 7 6
nan nan nan nan nan nan nan nan nan nan nan nan nan nan nan nan nan nan nan nan nan nan nan nan nan nan nan nan nan nan nan nan nan nan nan nan nan nan nan nan nan nan nan nan nan nan nan nan nan nan nan nan nan nan nan nan nan nan nan nan nan nan nan 24 23 25 33 33 29 20 23 23 21 16 12 10 8 5 3 2 2 6 9 11 9 9 8 6
nan nan nan nan nan nan nan nan nan nan nan nan nan nan nan nan nan nan nan nan nan nan nan nan nan nan nan nan nan nan nan nan nan nan nan nan nan nan nan nan nan nan nan nan nan nan nan nan nan nan nan nan nan nan nan nan nan nan nan nan nan nan nan 27 26 29 33 31 30 23 24 23 20 23 19 13 11 6 2 1 2 4 2 8 11 10 9 7
nan nan nan nan nan nan nan nan nan nan nan nan nan nan nan nan nan nan nan nan nan nan nan nan nan nan nan nan nan nan nan nan nan nan nan nan nan nan nan nan nan nan nan nan nan nan nan nan nan nan nan nan nan nan nan nan nan nan nan nan nan nan nan 30 31 31 34 33 28 23 21 23 22 23 18 13 11 8 4 2 2 1 1 7 12 10 8 9
nan nan nan nan nan nan nan nan nan nan nan nan nan nan nan nan nan nan nan nan nan nan nan nan nan nan nan nan nan nan nan nan nan nan nan nan nan nan nan nan nan nan nan nan nan nan nan nan nan nan nan nan nan nan nan nan nan nan nan nan nan 36 35 36 36 35 36 33 nan 25 20 22 nan 23 18 16 12 13 14 9 6 5 3 6 10 9 8 9
nan nan nan nan nan nan nan nan nan nan nan nan nan nan nan nan nan nan nan nan nan nan nan nan nan nan nan nan nan nan nan nan nan nan nan nan nan nan nan nan nan nan nan nan nan nan nan nan nan nan nan nan nan nan nan nan nan nan nan nan nan 38 35 37 38 38 35 nan 34 28 22 21 23 26 24 19 24 18 14 11 7 5 3 4 8 10 8 9
nan nan nan nan nan nan nan nan nan nan nan nan nan nan nan nan nan nan nan nan nan nan nan nan nan nan nan nan nan nan nan nan nan nan nan nan nan nan nan nan nan nan nan nan nan nan nan nan nan nan nan nan nan nan nan nan nan nan nan nan nan nan nan nan 38 35 nan nan 36 30 27 26 17 24 31 26 16 17 16 14 10 8 6 6 8 9 9 12
nan nan nan nan nan nan nan nan nan nan nan nan nan nan nan nan nan nan nan nan nan nan nan nan nan nan nan nan nan nan nan nan nan nan nan nan nan nan nan nan nan nan nan nan nan nan nan nan nan nan nan nan nan nan nan nan nan nan nan nan nan nan nan nan nan nan nan nan nan 31 28 24 28 25 30 26 24 20 15 14 13 9 7 7 9 12 13 15
nan nan nan nan nan nan nan nan nan nan nan nan nan nan nan nan nan 2 nan nan nan nan nan nan nan nan nan nan nan nan nan nan nan nan nan nan nan nan nan nan nan nan nan nan nan nan nan nan nan nan nan nan nan nan nan nan nan nan nan nan nan nan nan nan nan nan nan nan 29 30 29 27 22 29 28 26 25 22 17 14 15 14 9 7 10 13 15 19
nan nan nan nan nan nan nan nan nan nan nan nan nan nan nan nan nan nan nan nan nan nan nan nan nan nan nan nan nan nan nan nan nan nan nan nan nan nan nan nan nan nan nan nan nan nan nan nan nan nan nan nan nan nan nan nan nan nan nan nan nan nan nan nan nan nan nan 28 30 29 27 29 25 26 27 27 27 27 23 17 15 15 13 9 10 11 14 19
nan nan nan nan nan nan nan nan nan nan nan nan nan nan nan nan nan nan nan nan nan nan nan nan nan nan nan nan nan nan nan nan nan nan nan nan nan nan nan nan nan nan nan nan nan nan nan nan nan nan nan nan nan nan nan nan nan nan nan nan nan nan nan nan nan nan nan nan nan 33 28 24 24 20 27 29 30 32 27 21 16 14 12 10 8 9 12 18
nan nan nan nan nan nan nan nan nan nan nan nan nan nan nan nan nan nan nan nan nan nan nan nan nan nan nan nan nan nan nan nan nan nan nan nan nan nan nan nan nan nan nan nan nan nan nan nan nan nan nan nan nan nan nan nan nan nan nan nan nan nan nan nan nan nan nan nan nan 31 nan 26 nan 21 25 27 29 30 29 24 20 16 12 8 7 6 10 15
nan nan 8 nan nan nan nan nan nan nan nan nan nan nan nan nan nan nan nan nan nan nan nan nan nan nan nan nan nan nan nan nan nan nan nan nan nan nan nan nan nan nan nan nan nan nan nan nan nan nan nan nan nan nan nan nan nan nan nan nan nan nan nan nan nan nan nan nan 34 30 28 27 22 21 23 25 26 27 27 25 20 16 11 9 8 7 11 16
nan nan nan nan nan nan nan nan nan nan nan nan nan nan nan nan nan nan nan nan nan nan nan nan nan nan nan nan nan nan nan nan nan nan nan nan nan nan nan nan nan nan nan nan nan nan nan nan nan nan nan nan nan nan nan nan nan nan nan nan nan nan nan nan nan nan nan nan nan 31 30 27 23 24 24 25 24 24 24 24 22 17 14 12 11 10 11 17
nan nan nan nan nan nan nan nan nan nan nan nan nan nan nan nan nan nan nan nan nan nan nan nan nan nan nan nan nan nan nan nan nan nan nan nan nan nan nan nan nan nan nan nan nan nan nan nan nan nan nan nan nan nan nan nan nan nan nan nan nan nan nan nan nan nan nan 37 nan nan 28 28 29 27 25 25 24 24 25 28 26 22 18 15 14 14 16 19
nan nan nan nan nan nan nan nan nan nan nan nan nan nan nan nan nan nan nan nan nan nan nan nan nan nan nan nan nan nan nan nan nan nan nan nan nan nan nan nan nan nan nan nan nan nan nan nan nan nan nan nan nan nan nan nan nan nan nan nan nan nan nan nan nan nan nan nan 38 nan nan 34 32 27 26 28 28 26 25 27 26 26 23 20 18 18 19 19
nan nan nan nan nan nan nan nan nan nan nan nan nan nan nan 1 nan nan nan nan nan nan nan nan nan nan nan nan nan nan nan nan nan nan nan nan nan nan nan nan nan nan nan nan nan nan nan nan nan nan nan nan nan nan nan nan nan nan nan nan nan nan nan nan nan nan 42 43 44 41 nan 34 32 29 28 29 28 26 24 26 26 26 25 24 21 21 20 19
nan nan nan nan nan nan nan nan 5 5 nan nan nan nan nan nan nan nan nan nan nan nan nan nan nan nan nan nan nan nan nan nan nan nan nan nan nan nan nan nan nan nan nan nan nan nan 24 nan nan nan nan nan nan nan nan nan nan nan nan nan nan nan nan nan nan nan nan 45 39 40 nan 36 31 30 29 30 30 28 27 26 28 29 28 25 24 23 21 19
nan nan nan nan nan nan nan nan nan nan nan nan nan nan nan nan nan nan nan nan nan nan nan nan nan nan nan nan nan nan nan nan nan nan nan nan nan nan nan nan nan nan nan nan nan nan nan nan nan nan nan nan nan nan nan nan nan nan nan nan nan nan nan nan nan nan 42 42 41 nan nan 37 34 31 32 31 30 29 28 27 28 30 29 29 28 27 25 23
nan nan nan nan nan nan nan nan nan nan nan nan nan nan nan nan nan nan nan nan nan nan nan nan nan nan nan nan nan nan nan nan nan nan nan nan nan nan nan nan nan nan 13 13 12 18 nan nan 28 nan nan nan nan nan nan nan nan nan nan nan nan nan nan nan nan nan nan 47 44 38 39 42 39 34 32 31 34 35 32 30 31 30 30 30 29 28 28 26
nan nan nan nan nan nan nan nan nan nan nan nan nan nan nan nan nan nan nan nan nan nan nan nan nan nan nan nan nan nan nan nan nan nan nan nan nan nan nan nan nan nan 18 17 nan 17 23 nan 29 31 nan nan nan nan nan nan nan nan nan nan nan nan nan nan nan nan nan 46 41 43 43 41 37 33 32 31 32 34 34 34 32 31 31 31 31 31 29 27
nan nan nan nan nan nan nan nan nan nan nan nan nan nan nan nan nan nan nan nan nan nan nan nan nan nan nan nan nan nan nan nan nan nan nan nan nan nan nan nan nan nan 21 17 nan nan 23 nan nan nan nan nan nan nan nan nan nan nan nan nan 49 nan 46 nan nan nan 50 48 41 46 44 42 35 34 33 34 32 33 34 34 33 33 33 32 32 33 34 33
nan nan nan nan nan nan nan nan nan nan nan nan nan nan nan nan nan nan nan nan nan nan nan nan nan nan nan nan nan nan nan nan nan nan nan nan nan nan nan nan nan nan 19 nan nan nan nan nan nan nan nan nan nan nan nan nan nan nan 48 51 53 47 48 47 nan nan 46 nan nan 44 41 38 38 36 38 36 34 35 35 34 32 33 34 34 34 35 35 35
nan nan nan nan nan nan nan nan nan nan nan nan nan nan nan nan nan nan nan nan nan nan nan nan nan nan nan nan nan nan nan nan nan nan nan nan nan nan nan nan nan nan nan nan nan nan nan nan nan nan nan nan nan nan nan nan nan nan nan nan 54 49 47 48 48 52 49 48 47 43 42 46 45 42 41 40 38 38 39 39 37 35 34 35 37 38 37 36
nan nan nan nan nan nan nan nan nan nan nan 5 nan nan nan nan nan nan nan nan nan nan nan nan nan nan nan nan nan nan nan nan nan nan nan nan nan nan nan nan nan nan nan nan nan nan nan nan nan nan nan nan nan nan nan nan nan nan nan nan 53 49 47 47 46 49 51 47 47 44 46 48 48 47 47 43 42 42 41 40 41 41 40 39 41 42 41 40
nan nan nan nan nan nan 9 nan nan nan nan nan nan nan nan nan nan nan nan nan nan nan nan nan nan nan nan nan nan nan nan nan nan nan nan nan nan nan nan nan nan nan nan nan nan nan nan nan nan nan nan nan nan nan nan nan nan nan 46 49 51 51 49 47 45 44 44 45 44 45 45 44 46 47 47 45 43 42 41 42 43 43 43 45 46 46 45 44
nan nan nan nan nan nan nan nan nan nan nan nan nan nan nan nan nan nan nan nan nan nan nan nan nan nan nan nan nan nan nan nan nan nan nan nan nan nan nan nan nan nan nan nan nan nan nan nan nan nan nan nan nan nan nan nan nan nan 41 46 46 46 42 41 41 44 43 41 39 42 44 45 44 45 47 47 45 43 43 43 43 43 44 47 47 48 48 47
Wind_Direction
nan nan nan nan nan nan nan nan nan nan nan nan nan nan nan nan nan nan nan nan nan nan nan nan nan nan nan nan nan nan nan nan nan nan nan nan nan nan nan nan nan nan nan nan nan nan nan nan nan nan nan nan nan nan nan nan nan 254 247 240 242 272 331 325 16 337 nan 278 212 180 165 175 167 166 182 179 179 185 173 177 172 200 223 230 297 74 63 36
nan nan nan nan nan nan nan nan nan nan nan nan nan nan nan nan nan nan nan nan nan nan nan nan nan nan nan nan nan nan nan nan nan nan nan nan nan nan nan nan nan nan nan nan nan nan nan nan nan nan nan nan nan nan 260 251 nan 254 251 255 225 289 285 312 17 330 315 276 200 168 159 153 165 184 140 139 148 172 183 168 167 229 243 276 308 55 60 47
nan nan nan nan nan nan nan nan nan nan nan nan nan nan nan nan nan nan nan nan nan nan nan nan nan nan nan nan nan nan nan nan nan nan nan nan nan nan nan nan nan nan nan nan nan nan nan nan nan nan 246 244 nan 241 nan nan nan nan 240 231 238 272 266 244 349 350 337 198 169 161 157 159 164 158 135 131 135 146 165 147 141 229 285 316 336 51 62 59
nan nan nan nan nan nan nan nan nan nan nan nan nan nan nan nan nan nan nan nan nan nan nan nan nan nan nan nan nan nan nan nan nan nan nan nan nan nan nan nan nan nan nan nan nan nan nan nan nan nan 242 nan nan nan nan 250 nan 254 256 238 226 240 199 255 320 340 112 131 148 161 165 172 159 161 130 151 157 134 148 132 115 115 328 331 350 47 66 64
nan nan nan nan nan nan nan nan nan nan nan nan nan nan nan nan nan nan nan nan nan nan nan nan nan nan nan nan nan nan nan nan nan nan nan 232 nan nan nan nan nan nan nan nan nan nan nan nan nan nan nan 241 237 nan nan nan nan 250 236 201 181 205 221 254 301 331 148 144 157 167 163 162 168 163 140 120 142 132 135 139 130 130 34 337 1 49 71 67
nan nan nan nan nan nan nan nan nan nan nan nan nan nan nan nan nan nan nan nan nan nan nan nan nan nan nan nan nan nan nan nan nan nan nan 232 nan nan nan nan nan nan nan nan nan nan nan nan nan nan nan 237 nan nan nan nan 253 234 239 203 178 191 195 290 293 319 275 167 165 155 168 169 134 160 135 141 155 159 163 155 150 153 169 177 88 74 74 67
nan nan nan nan nan nan nan nan nan nan nan nan nan nan nan nan nan nan nan nan nan nan nan nan nan nan nan nan nan nan nan nan nan nan 215 245 nan nan nan nan nan nan nan nan nan nan nan nan nan nan nan nan nan nan nan nan 248 nan nan 215 213 268 267 269 257 251 227 218 185 178 170 173 199 220 137 151 157 172 164 166 178 198 211 239 55 80 77 74
nan nan nan nan nan nan nan nan nan nan nan nan nan nan nan nan nan nan nan nan nan nan nan nan nan nan nan nan nan nan nan nan nan nan nan nan nan nan nan nan nan nan nan nan nan nan nan nan nan nan nan 236 nan nan nan nan nan 234 227 204 234 246 235 237 235 211 222 205 208 206 200 182 158 184 152 157 157 187 184 171 201 222 243 210 97 88 91 91
nan nan nan nan nan nan nan nan nan nan nan nan nan nan nan nan nan nan nan nan nan nan nan nan nan nan nan nan nan nan nan nan nan nan nan nan nan nan nan nan nan nan nan nan nan nan nan nan nan nan nan 235 nan nan nan nan nan 234 225 221 240 235 243 241 246 225 214 203 213 226 206 184 181 195 182 160 155 189 215 198 194 225 263 240 116 103 108 108
nan nan nan nan nan nan nan nan nan nan nan nan nan nan nan nan nan nan nan nan nan nan nan nan nan nan nan nan nan nan nan nan nan nan nan nan nan nan nan nan nan nan nan nan nan nan nan nan nan nan nan 231 nan nan nan nan nan nan 225 223 233 234 235 234 246 223 207 206 196 224 211 186 169 145 169 168 164 213 238 230 190 181 141 217 165 121 115 110
nan nan nan nan nan nan nan nan nan nan nan nan nan nan nan nan nan nan nan nan nan nan nan nan nan nan nan nan nan nan nan nan nan nan nan nan nan nan nan nan nan nan nan nan nan nan nan nan nan nan nan 225 nan nan nan nan nan nan 233 235 231 226 222 223 230 228 212 205 195 219 207 189 178 162 174 189 176 230 264 246 212 159 152 182 213 118 116 118
nan nan nan nan nan nan nan nan nan nan nan nan nan nan nan nan nan nan nan nan nan nan nan nan nan nan nan nan nan nan nan nan nan nan nan nan nan nan nan nan nan nan nan nan nan nan nan nan nan nan nan nan nan nan nan nan nan 230 251 231 217 220 222 212 223 222 193 213 213 211 208 192 183 171 200 216 192 184 259 263 231 165 159 173 202 145 121 120
nan nan nan nan nan nan nan nan nan nan nan nan nan nan nan nan nan nan nan nan nan nan nan nan nan nan nan nan nan nan nan nan nan nan nan nan nan nan nan nan nan nan nan nan nan nan nan nan nan nan nan nan nan nan nan nan nan 241 224 232 217 204 211 212 218 203 212 221 227 195 187 183 190 193 205 220 202 188 218 239 214 170 156 160 176 163 136 117
nan nan nan nan nan nan nan nan nan nan nan nan nan nan nan nan nan nan nan nan nan nan nan nan nan nan nan nan nan nan nan nan nan nan nan nan nan nan nan nan nan nan nan nan nan nan nan nan nan nan nan nan nan nan nan nan 231 232 231 218 208 201 198 201 211 211 225 217 221 197 192 199 207 199 203 210 208 212 183 187 157 168 155 156 172 170 144 119
nan nan nan nan nan nan nan nan nan nan nan nan nan nan nan nan nan nan nan nan nan nan nan nan nan nan nan nan nan nan nan nan nan nan nan nan nan nan nan nan nan nan nan nan nan nan nan nan nan nan nan nan nan nan nan 225 227 233 229 215 205 196 190 185 198 202 212 223 222 208 199 202 207 205 205 204 207 186 189 151 129 159 147 145 177 174 151 138
nan nan nan nan nan nan nan nan nan nan nan nan nan nan nan nan nan nan nan nan nan nan nan nan nan nan nan nan nan nan nan nan nan nan nan nan nan nan nan nan nan nan nan nan nan nan nan nan nan nan nan nan nan nan nan 232 228 219 203 214 212 203 196 191 197 202 195 234 226 207 204 203 203 210 210 201 206 175 182 153 121 139 138 138 162 179 172 166
nan nan nan nan nan nan nan nan nan nan nan nan nan nan nan nan nan nan nan nan nan nan nan nan nan nan nan nan nan nan nan nan nan nan nan nan nan nan nan nan nan nan nan nan nan nan nan nan nan nan nan nan nan nan nan nan 228 225 210 213 211 204 197 198 210 207 195 235 238 209 203 193 192 220 219 204 194 178 168 157 116 131 145 136 143 164 183 174
nan nan nan nan nan nan nan nan nan nan nan nan nan nan nan nan nan nan nan nan nan nan nan nan nan nan nan nan nan nan nan nan nan nan nan nan nan nan nan nan nan nan nan nan nan nan nan nan nan nan nan nan nan nan nan nan nan 232 225 220 216 202 193 204 213 230 219 224 233 234 187 185 196 214 226 218 205 187 167 172 141 109 141 134 135 151 172 180
nan nan nan nan nan nan nan nan nan nan nan nan nan nan nan nan nan nan nan nan nan nan nan nan nan nan nan nan nan nan nan nan nan nan nan nan nan nan nan nan nan nan nan nan nan nan nan nan nan nan nan nan nan nan nan nan nan nan 221 216 216 201 193 195 210 230 251 252 231 230 182 183 193 199 214 221 214 199 187 192 167 135 128 141 139 146 162 175
nan nan nan nan nan nan nan nan nan nan nan nan nan nan nan nan nan nan nan nan nan nan nan nan nan nan nan nan nan nan nan nan nan nan nan nan nan nan nan nan nan nan nan nan nan nan nan nan nan nan nan nan nan nan nan nan nan nan nan 217 208 nan 200 201 204 232 227 233 222 226 220 203 177 179 204 224 225 214 202 196 186 148 130 127 142 136 147 162
nan nan nan nan nan nan nan nan nan nan nan nan nan nan nan nan nan nan nan nan nan nan nan nan nan nan nan nan nan nan nan nan nan nan nan nan nan nan nan nan nan nan nan nan nan nan nan nan nan nan nan nan nan nan nan nan nan nan nan nan nan 188 nan 199 203 238 230 216 223 229 243 249 214 204 200 224 248 250 216 206 200 162 137 133 132 131 131 145
nan nan nan nan nan nan nan nan nan nan nan nan nan nan nan nan nan nan nan nan nan nan nan nan nan nan nan nan nan nan nan nan nan nan nan nan nan nan nan nan nan nan nan nan nan nan nan nan nan nan nan nan nan nan nan nan nan nan nan nan nan nan nan 201 205 231 227 205 213 228 226 240 246 231 221 224 303 212 206 204 203 181 167 161 149 131 125 132
nan nan nan nan nan nan nan nan nan nan nan nan nan nan nan nan nan nan nan nan nan nan nan nan nan nan nan nan nan nan nan nan nan nan nan nan nan nan nan nan nan nan nan nan nan nan nan nan nan nan nan nan nan nan nan nan nan nan nan nan nan nan nan 202 205 219 221 204 212 221 210 218 226 229 216 191 149 182 193 204 207 194 186 174 155 140 130 121
nan nan nan nan nan nan nan nan nan nan nan nan nan nan nan nan nan nan nan nan nan nan nan nan nan nan nan nan nan nan nan nan nan nan nan nan nan nan nan nan nan nan nan nan nan nan nan nan nan nan nan nan nan nan nan nan nan nan nan nan nan nan nan nan 208 213 217 209 205 222 215 216 223 228 225 217 199 192 202 215 216 206 190 192 180 143 134 135
nan nan nan nan nan nan nan nan nan nan nan nan nan nan nan nan nan nan nan nan nan nan nan nan nan nan nan nan nan nan nan nan nan nan nan nan nan nan nan nan nan nan nan nan nan nan nan nan nan nan nan nan nan nan nan nan nan nan nan nan nan nan 197 208 224 218 211 208 209 226 216 209 225 222 222 234 227 199 217 238 234 228 211 198 193 142 140 145
nan nan nan nan nan nan nan nan nan nan nan nan nan nan nan nan nan nan nan nan nan nan nan nan nan nan nan nan nan nan nan nan nan nan nan nan nan nan nan nan nan nan nan nan nan nan nan nan nan nan nan nan nan nan nan nan nan nan nan nan nan nan nan 217 227 213 207 205 217 206 198 210 221 211 213 232 241 239 230 226 261 239 221 202 190 174 153 141
nan nan nan nan nan nan nan nan nan nan nan nan nan nan nan nan nan nan nan nan nan nan nan nan nan nan nan nan nan nan nan nan nan nan nan nan nan nan nan nan nan nan nan nan nan nan nan nan nan nan nan nan nan nan nan nan nan nan nan nan nan nan nan 212 222 206 207 213 216 207 200 195 199 212 219 231 243 254 256 253 327 277 228 206 195 187 170 155
nan nan nan nan nan nan nan nan nan nan nan nan nan nan nan nan nan nan nan nan nan nan nan nan nan nan nan nan nan nan nan nan nan nan nan nan nan nan nan nan nan nan nan nan nan nan nan nan nan nan nan nan nan nan nan nan nan nan nan nan nan nan nan 209 210 209 212 212 214 211 209 200 196 214 216 239 233 224 201 251 306 358 279 232 230 196 177 174
nan nan nan nan nan nan nan nan nan nan nan nan nan nan nan nan nan nan nan nan nan nan nan nan nan nan nan nan nan nan nan nan nan nan nan nan nan nan nan nan nan nan nan nan nan nan nan nan nan nan nan nan nan nan nan nan nan nan nan nan nan nan nan 207 206 210 213 210 209 217 217 202 200 221 226 236 223 208 190 202 237 298 39 253 244 216 191 203
nan nan nan nan nan nan nan nan nan nan nan nan nan nan nan nan nan nan nan nan nan nan nan nan nan nan nan nan nan nan nan nan nan nan nan nan nan nan nan nan nan nan nan nan nan nan nan nan nan nan nan nan nan nan nan nan nan nan nan nan nan 215 214 212 210 211 215 209 nan 224 228 210 nan 222 230 244 220 210 211 210 214 215 190 238 251 233 215 218
nan nan nan nan nan nan nan nan nan nan nan nan nan nan nan nan nan nan nan nan nan nan nan nan nan nan nan nan nan nan nan nan nan nan nan nan nan nan nan nan nan nan nan nan nan nan nan nan nan nan nan nan nan nan nan nan nan nan nan nan nan 216 216 216 213 212 213 nan 213 222 229 220 205 220 225 226 224 223 220 232 260 264 262 239 237 224 223 232
nan nan nan nan nan nan nan nan nan nan nan nan nan nan nan nan nan nan nan nan nan nan nan nan nan nan nan nan nan nan nan nan nan nan nan nan nan nan nan nan nan nan nan nan nan nan nan nan nan nan nan nan nan nan nan nan nan nan nan nan nan nan nan nan 217 217 nan nan 213 215 231 221 196 206 223 222 209 217 221 224 244 266 270 258 241 243 240 239
nan nan nan nan nan nan nan nan nan nan nan nan nan nan nan nan nan nan nan nan nan nan nan nan nan nan nan nan nan nan nan nan nan nan nan nan nan nan nan nan nan nan nan nan nan nan nan nan nan nan nan nan nan nan nan nan nan nan nan nan nan nan nan nan nan nan nan nan nan 222 234 209 212 217 225 216 214 210 216 224 225 244 271 282 251 237 236 241
nan nan nan nan nan nan nan nan nan nan nan nan nan nan nan nan nan 13 nan nan nan nan nan nan nan nan nan nan nan nan nan nan nan nan nan nan nan nan nan nan nan nan nan nan nan nan nan nan nan nan nan nan nan nan nan nan nan nan nan nan nan nan nan nan nan nan nan nan 220 235 235 219 214 225 218 216 212 209 215 225 224 227 243 262 258 248 242 240
nan nan nan nan nan nan nan nan nan nan nan nan nan nan nan nan nan nan nan nan nan nan nan nan nan nan nan nan nan nan nan nan nan nan nan nan nan nan nan nan nan nan nan nan nan nan nan nan nan nan nan nan nan nan nan nan nan nan nan nan nan nan nan nan nan nan nan 222 224 236 228 224 215 224 221 219 219 219 222 227 227 225 231 244 251 259 251 242
nan nan nan nan nan nan nan nan nan nan nan nan nan nan nan nan nan nan nan nan nan nan nan nan nan nan nan nan nan nan nan nan nan nan nan nan nan nan nan nan nan nan nan nan nan nan nan nan nan nan nan nan nan nan nan nan nan nan nan nan nan nan nan nan nan nan nan nan nan 228 223 225 218 225 224 222 223 222 223 229 229 222 232 249 250 251 253 249
nan nan nan nan nan nan nan nan nan nan nan nan nan nan nan nan nan nan nan nan nan nan nan nan nan nan nan nan nan nan nan nan nan nan nan nan nan nan nan nan nan nan nan nan nan nan nan nan nan nan nan nan nan nan nan nan nan nan nan nan nan nan nan nan nan nan nan nan nan 226 nan 223 nan 212 223 225 223 224 222 224 227 224 228 242 249 254 254 259
nan nan 341 nan nan nan nan nan nan nan nan nan nan nan nan nan nan nan nan nan nan nan nan nan nan nan nan nan nan nan nan nan nan nan nan nan nan nan nan nan nan nan nan nan nan nan nan nan nan nan nan nan nan nan nan nan nan nan nan nan nan nan nan nan nan nan nan nan 230 225 222 217 214 206 221 225 221 221 226 226 227 230 228 229 240 249 249 260
nan nan nan nan nan nan nan nan nan nan nan nan nan nan nan nan nan nan nan nan nan nan nan nan nan nan nan nan nan nan nan nan nan nan nan nan nan nan nan nan nan nan nan nan nan nan nan nan nan nan nan nan nan nan nan nan nan nan nan nan nan nan nan nan nan nan nan nan nan 231 231 227 227 212 219 225 225 215 224 229 228 229 231 233 235 242 252 256
nan nan nan nan nan nan nan nan nan nan nan nan nan nan nan nan nan nan nan nan nan nan nan nan nan nan nan nan nan nan nan nan nan nan nan nan nan nan nan nan nan nan nan nan nan nan nan nan nan nan nan nan nan nan nan nan nan nan nan nan nan nan nan nan nan nan nan 235 nan nan 231 232 230 219 220 226 224 220 228 228 225 225 229 231 240 243 247 255
nan nan nan nan nan nan nan nan nan nan nan nan nan nan nan nan nan nan nan nan nan nan nan nan nan nan nan nan nan nan nan nan nan nan nan nan nan nan nan nan nan nan nan nan nan nan nan nan nan nan nan nan nan nan nan nan nan nan nan nan nan nan nan nan nan nan nan nan 236 nan nan 233 231 223 218 222 225 226 229 236 228 228 229 232 241 245 247 254
nan nan nan nan nan nan nan nan nan nan nan nan nan nan nan 353 nan nan nan nan nan nan nan nan nan nan nan nan nan nan nan nan nan nan nan nan nan nan nan nan nan nan nan nan nan nan nan nan nan nan nan nan nan nan nan nan nan nan nan nan nan nan nan nan nan nan 231 233 232 231 nan 232 228 224 220 222 225 226 228 236 231 233 235 236 240 242 244 252
nan nan nan nan nan nan nan nan 345 327 nan nan nan nan nan nan nan nan nan nan nan nan nan nan nan nan nan nan nan nan nan nan nan nan nan nan nan nan nan nan nan nan nan nan nan nan 206 nan nan nan nan nan nan nan nan nan nan nan nan nan nan nan nan nan nan nan nan 239 238 239 nan 233 230 222 222 224 226 224 222 231 238 232 234 239 246 250 248 248
nan nan nan nan nan nan nan nan nan nan nan nan nan nan nan nan nan nan nan nan nan nan nan nan nan nan nan nan nan nan nan nan nan nan nan nan nan nan nan nan nan nan nan nan nan nan nan nan nan nan nan nan nan nan nan nan nan nan nan nan nan nan nan nan nan nan 228 236 233 nan nan 239 239 233 230 229 232 231 228 222 235 239 236 237 240 243 248 251
nan nan nan nan nan nan nan nan nan nan nan nan nan nan nan nan nan nan nan nan nan nan nan nan nan nan nan nan nan nan nan nan nan nan nan nan nan nan nan nan nan nan 238 234 212 211 nan nan 205 nan nan nan nan nan nan nan nan nan nan nan nan nan nan nan nan nan nan 232 233 236 238 238 244 241 239 236 238 239 234 233 232 236 241 240 241 244 247 249
nan nan nan nan nan nan nan nan nan nan nan nan nan nan nan nan nan nan nan nan nan nan nan nan nan nan nan nan nan nan nan nan nan nan nan nan nan nan nan nan nan nan 222 240 nan 224 222 nan 212 203 nan nan nan nan nan nan nan nan nan nan nan nan nan nan nan nan nan 234 235 236 237 249 251 252 249 242 241 244 243 242 240 240 240 241 243 242 245 248
nan nan nan nan nan nan nan nan nan nan nan nan nan nan nan nan nan nan nan nan nan nan nan nan nan nan nan nan nan nan nan nan nan nan nan nan nan nan nan nan nan nan 209 226 nan nan 221 nan nan nan nan nan nan nan nan nan nan nan nan nan 213 nan 213 nan nan nan 229 235 229 237 244 252 256 260 257 251 246 247 247 246 242 240 244 246 245 245 243 242
nan nan nan nan nan nan nan nan nan nan nan nan nan nan nan nan nan nan nan nan nan nan nan nan nan nan nan nan nan nan nan nan nan nan nan nan nan nan nan nan nan nan 213 nan nan nan nan nan nan nan nan nan nan nan nan nan nan nan 217 215 214 213 216 216 nan nan 216 nan nan 241 248 248 254 262 261 255 250 249 248 248 244 242 245 248 249 247 246 245
nan nan nan nan nan nan nan nan nan nan nan nan nan nan nan nan nan nan nan nan nan nan nan nan nan nan nan nan nan nan nan nan nan nan nan nan nan nan nan nan nan nan nan nan nan nan nan nan nan nan nan nan nan nan nan nan nan nan nan nan 217 217 221 219 220 219 220 218 221 235 243 239 245 257 259 257 253 251 249 248 247 247 248 250 250 248 246 246
nan nan nan nan nan nan nan nan nan nan nan 207 nan nan nan nan nan nan nan nan nan nan nan nan nan nan nan nan nan nan nan nan nan nan nan nan nan nan nan nan nan nan nan nan nan nan nan nan nan nan nan nan nan nan nan nan nan nan nan nan 219 219 223 223 222 221 218 225 228 241 244 243 242 251 255 255 254 254 253 253 253 252 252 253 252 252 251 250
nan nan nan nan nan nan 224 nan nan nan nan nan nan nan nan nan nan nan nan nan nan nan nan nan nan nan nan nan nan nan nan nan nan nan nan nan nan nan nan nan nan nan nan nan nan nan nan nan nan nan nan nan nan nan nan nan nan nan 213 218 219 220 222 223 225 224 224 225 233 242 244 244 249 253 254 255 256 259 259 257 255 255 256 255 254 255 256 257
nan nan nan nan nan nan nan nan nan nan nan nan nan nan nan nan nan nan nan nan nan nan nan nan nan nan nan nan nan nan nan nan nan nan nan nan nan nan nan nan nan nan nan nan nan nan nan nan nan nan nan nan nan nan nan nan nan nan 213 221 224 230 229 233 232 229 231 224 234 235 234 243 253 255 255 256 256 255 256 257 257 258 258 259 258 259 260 261